HST
1 20580U 90037B   24156.95475812  .00007989  00000-0  37738-3 0  9997
2 20580  28.4694  67.0764 0002436 265.6723  94.3591 15.17580514675170
ISS (ZARYA)
1 25544U 98067A   24157.10577803  .00018338  00000-0  31838-3 0  9999
2 25544  51.6408  15.1632 0005756 275.8155 221.8348 15.50881357456679
CXO
1 25867U 99040B   24159.92627997  .00000364  00000-0  00000-0 0  9995
2 25867  40.9579 154.6101 8904958 295.8800 359.6087  0.37806065 14522